Location: Peebles
(55.6412°N, 3.1714°W)
Time: 19:57:00
(UTC+00:00)

SeaSat 1 - Visible Passes

Search period start: 21 January 2022 00:00
Search period end: 31 January 2022 00:00
Orbit: 744 x 746 km, 108.0° (Epoch: 21 January)

Date Brightness Start Highest point End Pass type
(mag) Time Alt. Az. Time Alt. Az. Time Alt. Az.
21 Jan 3.5 18:38:59 25° ESE 18:38:59 25° ESE 18:42:29 10° SSE visible
21 Jan 3.9 20:18:46 30° SW 20:18:46 30° SW 20:21:14 10° SW visible
22 Jan 4.3 17:55:56 12° ESE 17:55:56 12° ESE 17:57:23 10° ESE visible
22 Jan 3.3 19:35:43 37° S 19:35:43 37° S 19:38:51 10° SSW visible
22 Jan 5.2 21:15:31 12° WSW 21:15:31 12° WSW 21:15:55 10° WSW visible
23 Jan 4.5 05:09:40 10° S 05:10:32 15° S 05:10:32 15° S visible
23 Jan 3.6 18:52:42 25° SE 18:52:42 25° SE 18:55:37 10° SSE visible
23 Jan 4.4 20:32:29 22° SW 20:32:29 22° SW 20:34:12 10° SW visible
24 Jan 4.7 04:26:54 10° SSE 04:27:44 15° SSE 04:27:44 15° SSE visible
24 Jan 4.4 06:06:41 10° SSW 06:07:31 13° SW 06:07:31 13° SW visible
24 Jan 4.3 18:09:41 12° ESE 18:09:41 12° ESE 18:10:48 10° SE visible
24 Jan 3.8 19:49:28 29° S 19:49:28 29° S 19:51:52 10° SSW visible
25 Jan 5.2 03:44:51 10° ESE 03:44:55 10° ESE 03:44:55 10° ESE visible
25 Jan 4.0 05:22:45 10° S 05:24:43 22° SSW 05:24:43 22° SSW visible
25 Jan 3.9 19:06:28 22° SSE 19:06:28 22° SSE 19:08:44 10° S visible
25 Jan 4.8 20:46:15 16° SW 20:46:15 16° SW 20:47:10 10° SW visible
26 Jan 4.1 04:39:55 10° SSE 04:41:56 25° SSE 04:41:56 25° SSE visible
26 Jan 4.1 06:19:55 10° SW 06:21:44 15° WSW 06:21:44 15° WSW visible
26 Jan 4.4 18:23:28 12° SE 18:23:28 12° SE 18:24:09 10° SE visible
26 Jan 4.2 20:03:16 21° SSW 20:03:16 21° SSW 20:04:54 10° SSW visible
27 Jan 4.7 03:57:48 10° SE 03:59:08 18° ESE 03:59:08 18° ESE visible
27 Jan 3.4 05:35:50 10° S 05:38:56 30° SSW 05:38:56 30° SSW visible
27 Jan 4.2 19:20:17 18° SSE 19:20:17 18° SSE 19:21:50 10° S visible
27 Jan 5.2 21:00:05 10° SW 21:00:05 10° SW 21:00:07 10° SW visible
28 Jan 5.3 03:16:15 10° E 03:16:20 10° E 03:16:20 10° E visible
28 Jan 3.2 04:52:55 10° SSE 04:56:08 41° SSE 04:56:08 41° SSE visible
28 Jan 4.0 06:33:10 10° SW 06:35:56 16° WSW 06:35:56 16° WSW visible
28 Jan 4.6 18:37:20 10° SE 18:37:20 10° SE 18:37:28 10° SE visible
28 Jan 4.7 20:17:07 15° SSW 20:17:07 15° SSW 20:17:55 10° SSW visible
29 Jan 4.0 04:10:45 10° SE 04:13:20 30° ESE 04:13:20 30° ESE visible
29 Jan 3.1 05:48:55 10° S 05:53:08 33° WSW 05:53:08 33° WSW visible
29 Jan 4.5 19:34:11 14° S 19:34:11 14° S 19:34:56 10° S visible
30 Jan 4.9 03:29:10 10° ESE 03:30:32 18° E 03:30:32 18° E visible
30 Jan 2.5 05:05:56 10° SSE 05:10:20 63° SSW 05:10:20 63° SSW visible
30 Jan 4.0 06:46:27 10° SW 06:49:11 15° WSW 06:50:07 14° W visible
